Content
SEND FEEDBACK

Daily
Averages
Monthly
Summary
Czech Republic

CESKE BUDEJOVICE, CZECH REPUBLIC


Home > Europe > Czech Republic
Elevation: 1391 feet     Latitude: 48 56N     Longitude: 014 27E

WEATHER
 
SELECT A DAY
Number of Records: 289,386;   Date Range: 7/1/96 - 4/21/13
 
SHARE

PRINT THIS DATA

[ ← Previous Day ]
WEATHER ALMANAC - APRIL 21, 2013
[ Next Day → ]
[ °C ]   °F
Weather ElementAverageHighLow
Temperature57 °F69.8 °F (3:50 pm)46.4 °F (5:20 am)
Dewpoint47.1 °F51.8 °F (1:50 pm)42.8 °F (4:20 am)
Humidity69.9 %87 % (12:50 am)42 % (5:00 pm)
Barometer30.01 in30.14 in (2:00 am)29.89 in (6:20 pm)
Wind Speed13 mph18.4 mph (5:20 pm)
Weather ElementAverage
Visibility5.8 mi
Wind DirectionE (95.1 °)

Weather ElementTotal
Precipitation---
Heating Degree Days6.9 (Base 65)
Growing Degree Days8.1 (Base 50)
Averaged from 55 records on April 21, 2013
WEATHER CONDITIONS BREAKOUT
WIND DIRECTION BREAKOUT
WEATHER BY HOUR - APRIL 21, 2013
[ °C ]   °F
Local TimeTemperatureDewpointHumidityBarometerVisibilityWind DirectionWind SpeedGust SpeedPrecipitationEventsConditions
12:50 AM50.0 °F46.4 °F87 %30.12 in5.0 miEast (80°)12.7 mphScattered Clouds
1:20 AM50.0 °F46.4 °F87 %30.12 in4.3 miEast (80°)8.1 mphScattered Clouds
1:50 AM50.0 °F46.4 °F87 %30.12 in4.3 miEast (90°)10.4 mphOvercast
2:00 AM49.0 °F46.0 °F87 %30.14 in4.0 miEast (90°)11.2 mph
2:20 AM50.0 °F46.4 °F87 %30.12 in4.3 miEast (90°)11.5 mphOvercast
2:50 AM48.2 °F44.6 °F87 %30.09 in5.0 miENE (70°)13.8 mphMostly Cloudy
3:20 AM50.0 °F44.6 °F82 %30.09 in5.0 miEast (80°)15.0 mphMostly Cloudy
3:50 AM50.0 °F44.6 °F82 %30.09 in5.0 miEast (80°)13.8 mphOvercast
4:20 AM48.2 °F42.8 °F82 %30.09 in5.0 miENE (70°)17.3 mphOvercast
4:50 AM48.2 °F42.8 °F82 %30.09 in5.0 miEast (80°)13.8 mphMostly Cloudy
5:00 AM48.0 °F43.0 °F77 %30.12 in5.0 miEast (80°)13.4 mphMostly Cloudy
5:20 AM46.4 °F42.8 °F87 %30.09 in4.3 miEast (80°)11.5 mphScattered Clouds
5:50 AM46.4 °F42.8 °F87 %30.09 in3.7 miEast (80°)11.5 mphPartly Cloudy
6:20 AM46.4 °F42.8 °F87 %30.09 in4.3 miEast (90°)12.7 mphMostly Cloudy
6:50 AM46.4 °F42.8 °F87 %30.09 in4.3 miEast (80°)13.8 mphMostly Cloudy
7:20 AM46.4 °F42.8 °F87 %30.09 in4.3 miEast (90°)16.1 mphMostly Cloudy
7:50 AM48.2 °F42.8 °F82 %30.06 in4.3 miEast (80°)15.0 mphMostly Cloudy
8:00 AM47.0 °F43.0 °F80 %30.11 in4.0 miEast (80°)15.7 mphScattered Clouds
8:20 AM48.2 °F42.8 °F82 %30.06 in5.0 miEast (80°)13.8 mphMostly Cloudy
8:50 AM48.2 °F42.8 °F82 %30.06 in5.0 miEast (80°)15.0 mphMostly Cloudy
9:20 AM51.8 °F44.6 °F76 %30.06 in5.0 miEast (80°)16.1 mphMostly Cloudy
9:50 AM51.8 °F44.6 °F76 %30.06 in5.6 miEast (80°)13.8 mphMostly Cloudy
10:20 AM53.6 °F46.4 °F77 %30.04 in5.6 miEast (90°)12.7 mphScattered Clouds
10:50 AM55.4 °F48.2 °F77 %30.04 in5.6 miEast (100°)12.7 mphScattered Clouds
11:00 AM56.0 °F47.0 °F64 %30.05 in6.0 miEast (100°)13.4 mphScattered Clouds
11:20 AM57.2 °F48.2 °F72 %30.04 inEast (80°)17.3 mphClear
11:50 AM60.8 °F48.2 °F63 %30.04 inEast (80°)15.0 mphClear
12:20 PM60.8 °F50.0 °F68 %30.01 inEast (90°)16.1 mphClear
12:50 PM62.6 °F50.0 °F63 %30.01 inEast (80°)16.1 mphClear
1:20 PM64.4 °F50.0 °F59 %29.98 inEast (100°)12.7 mphClear
1:50 PM66.2 °F51.8 °F60 %29.98 inEast (90°)15.0 mphClear
2:00 PM66.0 °F51.0 °F49 %29.97 in10.0 miEast (90°)15.7 mphScattered Clouds
2:20 PM68.0 °F51.8 °F56 %29.98 inEast (90°)13.8 mphClear
2:50 PM68.0 °F50.0 °F52 %29.95 in6.2 miEast (100°)15.0 mphPartly Cloudy
3:20 PM68.0 °F51.8 °F56 %29.95 in6.2 miEast (90°)13.8 mphPartly Cloudy
3:50 PM69.8 °F51.8 °F53 %29.92 in6.2 miEast (90°)13.8 mphPartly Cloudy
4:20 PM69.8 °F51.8 °F53 %29.92 in6.2 miEast (90°)13.8 mphPartly Cloudy
4:50 PM68.0 °F50.0 °F52 %29.92 in6.2 miEast (100°)17.3 mphPartly Cloudy
5:00 PM68.0 °F50.0 °F42 %29.91 in12.0 miEast (100°)17.9 mphScattered Clouds
5:20 PM68.0 °F50.0 °F52 %29.92 in6.2 miEast (90°)18.4 mphPartly Cloudy
5:50 PM68.0 °F50.0 °F52 %29.92 in6.2 miEast (100°)16.1 mphPartly Cloudy
6:20 PM66.2 °F51.8 °F60 %29.89 in6.2 miEast (100°)11.5 mphPartly Cloudy
6:50 PM66.2 °F50.0 °F56 %29.89 inEast (100°)11.5 mphClear
7:20 PM66.2 °F50.0 °F56 %29.89 inEast (100°)12.7 mphClear
7:50 PM64.4 °F48.2 °F56 %29.89 inEast (80°)10.4 mphClear
8:00 PM64.0 °F48.0 °F46 %29.90 in13.0 miEast (80°)11.2 mphPartly Cloudy
8:20 PM62.6 °F48.2 °F59 %29.92 inEast (80°)10.4 mphClear
8:50 PM60.8 °F48.2 °F63 %29.92 inEast (80°)9.2 mphClear
9:20 PM59.0 °F48.2 °F67 %29.92 inENE (70°)9.2 mphClear
9:50 PM59.0 °F46.4 °F63 %29.92 inEast (80°)8.1 mphClear
10:20 PM57.2 °F46.4 °F67 %29.92 inENE (70°)9.2 mphClear
10:50 PM55.4 °F46.4 °F72 %29.95 inSW (220°)6.9 mphClear
11:00 PM56.0 °F47.0 °F64 %29.95 in12.0 miSW (220°)6.7 mphPartly Cloudy
11:20 PM55.4 °F46.4 °F72 %29.95 in6.2 miSE (140°)3.5 mph
11:50 PM53.6 °F48.2 °F82 %29.95 in5.0 miWest (270°)11.5 mph
Hourly data recorded from LOLF, located miles away from Ceske Budejovice, Czech Republic







STORIES FROM OUR PARTNERS